Tracking 23610 objects as of 20-Sep-2021
HD Live streaming from Space Station
objects crossing your sky now

STARLINK-2438

Track STARLINK-2438 now!
10-day predictions
STARLINK-2438 is classified as:


NORAD ID: 48103
Int'l Code: 2021-027M
Perigee: 554.1 km
Apogee: 554.6 km
Inclination: 53.0 °
Period: 95.6 minutes
Semi major axis: 6925 km
RCS: Unknown
Launch date: April 7, 2021
Source: United States (US)
Launch site: AIR FORCE EASTERN TEST RANGE (AFETR)
aabbcc
Your satellite tracking list
Your tracking list is empty




NASA's NSSDC Master Catalog

Two Line Element Set (TLE):
1 48103U 21027M   21262.75302663  .00000807  00000-0  73007-4 0  9999
2 48103  53.0454 277.6973 0000311  87.2826 272.8198 15.06401688 26721
Source of the keplerian elements: AFSPC